| time (UTC) | temp F | wind direction | speed MPH | gust MPH | rain 1hr in | rain 24hr in | rain mn in | humidity % | barometer mb |
| 20260508052036 | 40 | 311 | 0.0 | 0.0 | 0.00 | 0.19 | 0.00 | 61 | 1008.4 |
| 20260508051928 | 40 | 311 | 0.0 | 0.0 | 0.00 | 0.19 | 0.00 | 60 | 1008.4 |
| 20260508050036 | 41 | 311 | 0.0 | 0.0 | 0.00 | 0.19 | 0.00 | 62 | 1008.4 |
| 20260508044036 | 42 | 311 | 0.0 | 0.0 | 0.00 | 0.19 | 0.00 | 65 | 1008.8 |
| 20260508042037 | 42 | 311 | 0.0 | 0.0 | 0.00 | 0.19 | 0.00 | 68 | 1009.0 |
| 20260508041928 | 42 | 311 | 0.0 | 0.0 | 0.00 | 0.19 | 0.00 | 68 | 1009.0 |
| 20260508040037 | 43 | 311 | 0.0 | 0.0 | 0.00 | 0.19 | 0.19 | 68 | 1008.9 |
| 20260508034036 | 44 | 311 | 0.0 | 0.0 | 0.00 | 0.19 | 0.19 | 67 | 1008.9 |
| 20260508032036 | 46 | 311 | 0.0 | 0.0 | 0.00 | 0.19 | 0.19 | 65 | 1008.8 |
| 20260508031928 | 46 | 311 | 0.0 | 0.0 | 0.00 | 0.19 | 0.19 | 65 | 1008.8 |
| 20260508030036 | 46 | 311 | 0.0 | 0.0 | 0.00 | 0.19 | 0.19 | 62 | 1008.8 |
| 20260508024036 | 47 | 311 | 0.0 | 0.0 | 0.00 | 0.19 | 0.19 | 59 | 1008.8 |
| 20260508022036 | 48 | 311 | 0.0 | 0.0 | 0.00 | 0.19 | 0.19 | 56 | 1008.8 |
| 20260508021928 | 49 | 311 | 0.0 | 0.0 | 0.00 | 0.19 | 0.19 | 56 | 1008.7 |
| 20260508020036 | 49 | 311 | 0.0 | 0.0 | 0.00 | 0.19 | 0.19 | 56 | 1008.8 |
| 20260508014036 | 51 | 311 | 0.0 | 0.0 | 0.00 | 0.19 | 0.19 | 52 | 1009.0 |
| 20260508012036 | 52 | 311 | 0.0 | 0.0 | 0.00 | 0.19 | 0.19 | 52 | 1008.9 |
| 20260508011928 | 52 | 311 | 0.0 | 0.0 | 0.00 | 0.19 | 0.19 | 51 | 1008.8 |
| 20260508010036 | 53 | 311 | 0.0 | 6.0 | 0.00 | 0.19 | 0.19 | 49 | 1008.2 |
| 20260508004036 | 54 | 311 | 0.0 | 6.0 | 0.00 | 0.19 | 0.19 | 49 | 1008.0 |
| 20260508002036 | 55 | 311 | 0.0 | 6.0 | 0.00 | 0.19 | 0.19 | 47 | 1007.7 |
| 20260508001928 | 55 | 311 | 0.0 | 6.0 | 0.00 | 0.19 | 0.19 | 46 | 1007.7 |
| 20260508000038 | 56 | 311 | 0.0 | 10.0 | 0.00 | 0.19 | 0.19 | 44 | 1007.4 |
| 20260507234036 | 57 | 311 | 0.0 | 10.0 | 0.00 | 0.19 | 0.19 | 41 | 1007.2 |
| 20260507232036 | 58 | 293 | 0.0 | 10.0 | 0.00 | 0.19 | 0.19 | 42 | 1007.0 |
| 20260507231928 | 58 | 292 | 0.0 | 10.0 | 0.00 | 0.19 | 0.19 | 41 | 1006.9 |
| 20260507230036 | 58 | 18 | 0.0 | 11.0 | 0.00 | 0.19 | 0.19 | 39 | 1007.0 |
| 20260507222036 | 59 | 334 | 1.0 | 11.0 | 0.00 | 0.21 | 0.19 | 37 | 1006.7 |
| 20260507221927 | 59 | 341 | 4.0 | 11.0 | 0.00 | 0.21 | 0.19 | 37 | 1006.7 |
| 20260507220037 | 60 | 306 | 0.0 | 9.0 | 0.00 | 0.22 | 0.19 | 37 | 1006.7 |
| 20260507214037 | 60 | 298 | 4.0 | 9.0 | 0.00 | 0.22 | 0.19 | 36 | 1006.6 |
| 20260507212037 | 61 | 299 | 6.0 | 9.0 | 0.00 | 0.22 | 0.19 | 37 | 1006.1 |
| 20260507211927 | 61 | 297 | 5.0 | 9.0 | 0.00 | 0.22 | 0.19 | 37 | 1006.0 |
| 20260507210036 | 62 | 301 | 6.0 | 11.0 | 0.00 | 0.22 | 0.19 | 37 | 1005.9 |
| 20260507204037 | 63 | 21 | 1.0 | 11.0 | 0.00 | 0.22 | 0.19 | 36 | 1005.9 |
| 20260507202038 | 64 | 292 | 0.0 | 11.0 | 0.00 | 0.22 | 0.19 | 35 | 1005.8 |
| 20260507201927 | 64 | 292 | 0.0 | 11.0 | 0.00 | 0.22 | 0.19 | 35 | 1005.7 |
| 20260507200037 | 64 | 289 | 0.0 | 12.0 | 0.00 | 0.23 | 0.19 | 36 | 1005.9 |
| 20260507194037 | 65 | 110 | 0.0 | 12.0 | 0.00 | 0.23 | 0.19 | 34 | 1005.8 |
| 20260507192037 | 64 | 302 | 0.0 | 12.0 | 0.00 | 0.27 | 0.19 | 34 | 1006.2 |
| 20260507191927 | 64 | 36 | 0.0 | 12.0 | 0.00 | 0.27 | 0.19 | 34 | 1006.2 |
| 20260507190037 | 63 | 302 | 5.0 | 10.0 | 0.00 | 0.29 | 0.19 | 35 | 1006.4 |
| 20260507182037 | 64 | 313 | 6.0 | 10.0 | 0.00 | 0.30 | 0.19 | 35 | 1006.6 |
| 20260507181927 | 64 | 318 | 7.0 | 10.0 | 0.00 | 0.30 | 0.19 | 35 | 1006.6 |
| 20260507180037 | 64 | 294 | 0.0 | 9.0 | 0.00 | 0.30 | 0.19 | 35 | 1006.9 |
| 20260507174036 | 64 | 193 | 0.0 | 9.0 | 0.00 | 0.30 | 0.19 | 37 | 1007.1 |
| 20260507172037 | 63 | 355 | 0.0 | 9.0 | 0.00 | 0.30 | 0.19 | 41 | 1007.2 |
| 20260507171927 | 62 | 24 | 0.0 | 9.0 | 0.00 | 0.30 | 0.19 | 40 | 1007.1 |
| 20260507170037 | 62 | 306 | 0.0 | 10.0 | 0.00 | 0.30 | 0.19 | 40 | 1007.3 |
| 20260507164035 | 61 | 349 | 0.0 | 10.0 | 0.00 | 0.30 | 0.19 | 40 | 1007.6 |
| 20260507162037 | 61 | 53 | 0.0 | 10.0 | 0.00 | 0.30 | 0.19 | 40 | 1007.8 |
| 20260507161927 | 61 | 33 | 6.0 | 10.0 | 0.00 | 0.30 | 0.19 | 41 | 1007.9 |
| 20260507160037 | 60 | 308 | 0.0 | 6.0 | 0.00 | 0.30 | 0.19 | 42 | 1008.0 |
| 20260507154037 | 60 | 320 | 0.0 | 6.0 | 0.00 | 0.30 | 0.19 | 56 | 1008.2 |
| 20260507152037 | 59 | 323 | 0.0 | 6.0 | 0.00 | 0.30 | 0.19 | 58 | 1008.2 |
| 20260507151927 | 59 | 324 | 0.0 | 6.0 | 0.00 | 0.30 | 0.19 | 58 | 1008.2 |
| 20260507150038 | 59 | 319 | 0.0 | 0.0 | 0.00 | 0.30 | 0.19 | 64 | 1008.3 |
| 20260507144038 | 57 | 335 | 0.0 | 0.0 | 0.00 | 0.30 | 0.19 | 64 | 1008.4 |
| 20260507142036 | 56 | 301 | 0.0 | 0.0 | 0.00 | 0.30 | 0.19 | 65 | 1008.5 |
| 20260507141927 | 56 | 301 | 5.0 | 0.0 | 0.00 | 0.30 | 0.19 | 64 | 1008.4 |
| 20260507140036 | 55 | 317 | 0.0 | 0.0 | 0.00 | 0.30 | 0.19 | 66 | 1008.6 |
| 20260507134037 | 53 | 317 | 0.0 | 0.0 | 0.00 | 0.30 | 0.19 | 59 | 1008.6 |
| 20260507132036 | 52 | 301 | 0.0 | 0.0 | 0.00 | 0.30 | 0.19 | 30 | 1008.7 |
| 20260507131927 | 52 | 299 | 0.0 | 0.0 | 0.00 | 0.30 | 0.19 | 28 | 1008.7 |
| 20260507130035 | 51 | 295 | 0.0 | 0.0 | 0.00 | 0.30 | 0.19 | 100 | 1009.0 |
| 20260507124035 | 50 | 294 | 0.0 | 0.0 | 0.00 | 0.30 | 0.19 | 100 | 1008.6 |
| 20260507122036 | 51 | 294 | 0.0 | 0.0 | 0.00 | 0.30 | 0.19 | 100 | 1008.7 |
| 20260507121927 | 51 | 294 | 0.0 | 0.0 | 0.00 | 0.30 | 0.19 | 100 | 1008.7 |
| 20260507114036 | 49 | 294 | 0.0 | 0.0 | 0.02 | 0.30 | 0.19 | 100 | 1008.4 |
| 20260507112036 | 49 | 294 | 0.0 | 0.0 | 0.02 | 0.30 | 0.19 | 100 | 1008.3 |
| 20260507111927 | 49 | 294 | 0.0 | 0.0 | 0.02 | 0.30 | 0.19 | 100 | 1008.5 |
| 20260507110036 | 49 | 294 | 0.0 | 0.0 | 0.05 | 0.28 | 0.17 | 100 | 1008.4 |
| 20260507104038 | 49 | 294 | 0.0 | 0.0 | 0.05 | 0.28 | 0.17 | 100 | 1008.1 |
| 20260507102036 | 49 | 294 | 0.0 | 0.0 | 0.05 | 0.28 | 0.17 | 100 | 1007.7 |
| 20260507101927 | 49 | 294 | 0.0 | 0.0 | 0.05 | 0.28 | 0.17 | 100 | 1007.6 |
| 20260507100038 | 50 | 294 | 0.0 | 7.0 | 0.03 | 0.23 | 0.12 | 100 | 1007.6 |
| 20260507094037 | 50 | 294 | 0.0 | 7.0 | 0.03 | 0.23 | 0.12 | 100 | 1007.7 |
| 20260507092036 | 50 | 294 | 0.0 | 7.0 | 0.03 | 0.23 | 0.12 | 100 | 1007.5 |
| 20260507091927 | 50 | 294 | 0.0 | 7.0 | 0.03 | 0.23 | 0.12 | 100 | 1007.6 |
| 20260507090036 | 50 | 294 | 0.0 | 0.0 | 0.09 | 0.20 | 0.09 | 100 | 1007.5 |
| 20260507084036 | 50 | 307 | 0.0 | 0.0 | 0.09 | 0.20 | 0.09 | 100 | 1007.2 |
| 20260507082036 | 51 | 307 | 0.0 | 0.0 | 0.09 | 0.20 | 0.09 | 1 | 1007.3 |
| 20260507081927 | 51 | 307 | 0.0 | 0.0 | 0.09 | 0.20 | 0.09 | 1 | 1007.4 |
| 20260507080036 | 52 | 307 | 0.0 | 0.0 | 0.00 | 0.11 | 0.00 | 1 | 1007.4 |
| 20260507074036 | 52 | 307 | 0.0 | 0.0 | 0.00 | 0.11 | 0.00 | 6 | 1007.7 |
| 20260507072037 | 52 | 307 | 0.0 | 0.0 | 0.00 | 0.11 | 0.00 | 15 | 1007.9 |
| 20260507071927 | 53 | 307 | 0.0 | 0.0 | 0.00 | 0.11 | 0.00 | 15 | 1007.7 |
| 20260507070036 | 53 | 307 | 0.0 | 0.0 | 0.00 | 0.11 | 0.00 | 17 | 1006.9 |
| 20260507062036 | 54 | 210 | 0.0 | 0.0 | 0.00 | 0.11 | 0.00 | 100 | 1006.7 |
| 20260507061927 | 54 | 210 | 0.0 | 0.0 | 0.00 | 0.11 | 0.00 | 100 | 1006.8 |
| 20260507060035 | 55 | 210 | 0.0 | 0.0 | 0.00 | 0.11 | 0.00 | 100 | 1006.5 |
| 20260507054035 | 56 | 210 | 0.0 | 0.0 | 0.00 | 0.11 | 0.00 | 100 | 1006.7 |